Location: Newark
(40.9833°N, 0.0333°W)
Time: 02:42:33
(UTC+00:00)

Transit 2A Rocket - Pass Details

Date: 30 October 2020
Orbit: 588 x 914 km, 66.7° (Epoch: 26 November)

Event Time Altitude Azimuth Distance (km) Brightness Sun altitude
Rises 11:04:02 0° 265° (W) 3,540 8.4 34.2°
Reaches altitude 10° 11:07:52 10° 289° (WNW) 2,580 7.6 34.4°
Maximum altitude 11:11:07 15° 322° (NW) 2,227 7.1 34.5°
Drops below altitude 10° 11:14:18 10° 355° (N) 2,512 7.3 34.6°
Sets 11:17:58 0° 19° (NNE) 3,390 7.9 34.7°
